$DATE,$TIME,DM0600B,DM0602B,DM0604B,DM0614B,DM0616B,DM0618B,DM0624B,DM0628B,DM0630B,DM0634B,DM0606B,DM0608B,DM0610B
10/08/94,00:00:00,0,0,0,0,53,30,80,75,43,0,19,17,19
10/08/94,00:05:00,0,0,0,0,50,28,75,75,43,0,16,22,13
10/08/94,00:10:00,0,0,0,0,47,26,71,74,43,0,25,26,23
10/08/94,00:15:00,0,0,0,0,56,31,84,74,43,0,21,17,15
10/08/94,00:20:00,0,0,0,0,56,31,84,74,43,0,17,17,12
10/08/94,00:25:00,0,0,0,0,55,31,83,74,43,0,16,27,20
10/08/94,00:30:00,0,0,0,0,54,30,82,74,43,0,23,20,16
10/08/94,00:35:00,0,0,0,0,55,30,82,74,43,0,19,15,12
10/08/94,00:40:00,0,0,0,0,55,31,83,74,43,0,13,26,21
10/08/94,00:45:00,0,0,0,0,55,31,83,74,43,0,12,23,18
10/08/94,00:50:00,0,0,0,0,57,31,85,74,52,0,19,15,13
10/08/94,00:55:00,0,0,0,0,53,29,80,74,43,0,22,16,10
10/08/94,01:00:00,0,0,0,0,61,34,92,74,43,0,18,25,18
10/08/94,01:05:00,0,0,0,0,57,32,84,74,42,0,14,19,16
10/08/94,01:10:00,0,0,0,0,49,27,74,74,51,0,14,15,12
10/08/94,01:15:00,0,0,0,0,43,24,68,74,51,0,25,25,21
10/08/94,01:20:00,0,0,0,0,42,23,62,74,51,0,23,23,18
10/08/94,01:25:00,0,0,0,0,35,19,53,75,51,0,18,18,17
10/08/94,01:30:00,0,0,0,0,33,19,50,75,51,0,26,29,23
10/08/94,01:35:00,0,0,0,0,43,24,68,75,51,0,24,23,16
10/08/94,01:40:00,0,0,0,0,41,23,63,75,51,0,19,21,26
10/08/94,01:45:00,0,0,0,0,34,19,52,75,51,0,29,32,17
10/08/94,01:50:00,0,0,0,0,33,19,51,75,51,0,23,22,25
10/08/94,01:55:00,0,0,0,0,30,17,45,77,51,0,22,24,20
10/08/94,02:00:00,0,0,0,0,30,17,45,77,51,0,22,24,20
10/08/94,02:05:00,0,0,0,0,23,13,36,78,51,0,22,22,26
10/08/94,02:10:00,0,0,0,0,22,12,34,77,51,0,31,32,23
10/08/94,02:15:00,0,0,0,0,17,10,28,76,51,0,29,30,34
10/08/94,02:20:00,0,0,0,0,22,12,33,76,51,0,28,28,24
10/08/94,02:25:00,0,0,0,0,18,10,28,76,51,0,36,37,29
10/08/94,02:30:00,0,0,0,0,26,14,39,80,51,0,25,26,32
10/08/94,02:35:00,0,0,0,0,42,23,69,80,51,0,35,35,22
10/08/94,02:40:00,0,0,0,0,39,22,59,80,51,0,25,26,32
10/08/94,02:45:00,0,0,0,0,31,18,50,79,51,0,30,30,28
10/08/94,02:50:00,0,0,0,0,22,13,34,80,55,0,31,35,23
10/08/94,02:55:00,0,0,0,0,16,9,26,80,51,0,26,27,36
10/08/94,03:00:00,0,0,0,0,12,7,19,80,51,0,37,36,26
10/08/94,03:05:00,0,0,0,0,15,8,23,80,51,0,30,31,33
10/08/94,03:10:00,0,0,0,0,32,17,48,80,51,0,32,32,34
10/08/94,03:15:00,0,0,0,0,39,21,59,80,51,0,34,35,23
10/08/94,03:20:00,0,0,0,0,38,21,58,80,51,0,27,26,32
10/08/94,03:25:00,0,0,0,0,37,22,58,79,51,0,35,35,29
10/08/94,03:30:00,0,0,0,0,36,23,57,79,51,0,25,26,21
10/08/94,03:35:00,0,0,0,0,35,23,56,80,51,0,30,29,31
10/08/94,03:40:00,0,0,0,0,34,22,55,80,51,0,29,33,26
10/08/94,03:45:00,0,0,0,0,34,22,54,80,51,0,26,24,22
10/08/94,03:50:00,0,0,0,0,33,22,54,80,51,0,34,35,32
10/08/94,03:55:00,0,0,0,0,34,22,55,79,43,0,24,24,24
10/08/94,04:00:00,0,0,0,0,38,25,61,81,43,0,32,30,25
10/08/94,04:05:00,0,0,0,0,37,23,64,81,43,0,25,28,26
10/08/94,04:10:00,0,0,0,0,52,32,81,80,43,0,25,24,20
10/08/94,04:15:00,0,0,0,0,57,35,88,80,43,0,28,30,24
10/08/94,04:20:00,0,0,0,0,45,27,64,78,43,0,20,20,18
10/08/94,04:25:00,0,0,0,0,27,15,41,79,43,0,23,24,26
10/08/94,04:30:00,0,0,0,0,25,14,38,79,43,0,31,31,20
10/08/94,04:35:00,0,0,0,0,21,12,33,79,43,0,22,22,31
10/08/94,04:40:00,0,0,0,0,19,11,30,79,43,0,30,32,21
10/08/94,04:45:00,0,0,0,0,19,11,30,79,43,0,28,26,29
10/08/94,04:50:00,0,0,0,0,18,10,28,79,55,0,27,29,30
10/08/94,04:55:00,0,0,0,0,17,10,26,79,47,0,36,37,22
10/08/94,05:00:00,0,0,0,0,15,9,23,80,47,0,25,25,37
10/08/94,05:05:00,0,0,0,0,14,8,23,80,47,0,35,37,28
10/08/94,05:10:00,0,1,2,0,13,8,21,80,46,0,30,29,27
10/08/94,05:15:00,0,0,0,0,15,9,23,80,46,0,30,31,36
10/08/94,05:20:00,6,11,18,11,18,10,28,79,46,0,36,38,23
10/08/94,05:25:00,0,0,2,0,17,10,27,79,46,0,24,24,32
10/08/94,05:30:00,0,0,0,0,15,9,24,80,46,0,35,35,32
10/08/94,05:35:00,0,4,0,0,13,8,21,80,46,0,30,31,23
10/08/94,05:40:00,0,3,23,0,11,7,18,80,46,0,30,30,37
10/08/94,05:45:00,0,0,0,0,9,6,15,80,47,0,39,40,29
10/08/94,05:50:00,13,19,22,29,10,6,16,79,46,0,26,25,29
10/08/94,05:55:00,0,0,0,0,10,6,16,79,46,0,37,37,32
10/08/94,06:00:00,0,0,0,0,10,6,17,80,46,0,24,23,23
10/08/94,06:05:00,14,2,9,12,9,5,15,80,46,0,33,34,36
10/08/94,06:10:00,21,20,37,17,9,5,14,79,46,0,28,26,23
10/08/94,06:15:00,23,15,18,16,9,5,15,79,46,0,22,26,22
10/08/94,06:20:00,29,12,21,18,8,5,12,78,46,0,30,31,26
10/08/94,06:25:00,42,49,53,37,7,4,11,77,46,0,20,18,16
10/08/94,06:30:00,40,44,43,42,6,4,10,76,45,0,16,14,13
10/08/94,06:35:00,52,42,50,39,5,3,9,73,56,0,13,11,10
10/08/94,06:40:00,25,24,34,20,5,3,8,71,53,0,12,10,10
10/08/94,06:45:00,43,19,40,26,5,3,8,74,53,0,10,9,9
10/08/94,06:50:00,28,34,50,33,5,3,9,74,53,0,10,8,8
10/08/94,06:55:00,32,29,40,27,6,4,10,75,54,0,9,7,8
10/08/94,07:00:00,4,12,13,4,7,5,12,76,54,0,9,11,8
10/08/94,07:05:00,0,2,0,0,9,6,15,76,54,0,18,23,19
10/08/94,07:10:00,9,12,5,5,8,5,12,76,54,0,23,18,15
10/08/94,07:15:00,2,10,10,5,9,5,15,77,54,0,18,21,21
10/08/94,07:20:00,11,14,30,16,10,6,16,77,54,0,27,32,20
10/08/94,07:25:00,18,16,13,3,10,6,16,77,54,0,23,20,19
10/08/94,07:30:00,6,5,6,6,9,6,15,77,46,0,22,25,23
10/08/94,07:35:00,0,0,4,1,7,5,12,77,46,0,30,28,20
10/08/94,07:40:00,12,5,11,8,5,3,9,77,46,0,22,23,28
10/08/94,07:45:00,0,0,0,0,4,2,7,77,47,0,31,35,28
10/08/94,07:50:00,0,0,0,0,2,2,4,77,47,0,31,27,23
10/08/94,07:55:00,0,0,0,0,1,1,3,78,47,0,28,31,37
10/08/94,08:00:00,0,0,6,0,1,1,3,78,47,0,39,40,27
10/08/94,08:05:00,0,0,0,0,1,1,3,78,47,0,28,26,36
10/08/94,08:10:00,0,0,0,0,1,1,2,78,47,0,33,35,33
10/08/94,08:15:00,0,0,0,0,0,1,2,78,47,0,41,41,29
10/08/94,08:20:00,0,0,0,0,0,0,1,78,47,0,40,39,39
10/08/94,08:25:00,0,0,0,0,0,0,1,78,47,0,40,43,28
10/08/94,08:30:00,0,0,0,0,0,0,0,79,47,0,29,28,43
10/08/94,08:35:00,0,0,0,0,0,0,0,79,47,0,39,37,30
10/08/94,08:40:00,0,0,0,0,0,0,0,76,55,0,43,42,41
10/08/94,08:45:00,0,0,0,0,0,0,0,79,55,0,41,42,34
10/08/94,08:50:00,0,0,0,0,0,0,0,79,71,0,42,44,37
10/08/94,08:55:00,0,0,0,0,0,0,0,79,55,0,41,40,36
10/08/94,09:00:00,0,0,0,0,0,0,0,82,59,0,42,43,33
10/08/94,09:05:00,0,0,0,0,0,0,0,82,55,0,42,42,39
10/08/94,09:10:00,0,0,0,0,0,0,0,82,55,0,42,44,31
10/08/94,09:15:00,0,0,0,0,0,0,0,79,55,0,44,44,41
10/08/94,09:20:00,0,0,0,0,0,0,0,79,55,0,42,42,30
10/08/94,09:25:00,0,0,0,0,0,0,0,79,55,0,45,44,43
10/08/94,09:30:00,0,0,0,0,0,0,0,79,55,0,33,34,32
10/08/94,09:35:00,0,0,0,0,0,0,0,79,55,0,39,37,46
10/08/94,09:40:00,0,0,0,0,0,0,0,79,55,0,44,43,32
10/08/94,09:45:00,0,0,0,0,0,0,0,79,55,0,42,42,44
10/08/94,09:50:00,0,0,0,0,0,0,0,79,55,0,44,44,33
10/08/94,09:55:00,0,0,0,0,0,0,0,79,55,0,34,35,38
10/08/94,10:00:00,0,0,0,0,0,0,0,80,55,0,36,35,37
10/08/94,10:05:00,0,0,0,0,0,0,0,82,55,0,44,44,33
10/08/94,10:10:00,0,0,0,0,0,0,0,82,55,0,42,40,38
10/08/94,10:15:00,0,0,0,0,0,0,0,82,55,0,41,41,31
10/08/94,10:20:00,0,0,0,0,0,0,0,82,55,0,41,42,40
10/08/94,10:25:00,0,0,0,0,0,0,0,82,55,0,45,44,30
10/08/94,10:30:00,0,0,0,0,0,0,0,80,55,0,30,30,43
10/08/94,10:35:00,0,0,0,0,0,0,0,80,55,0,38,35,31
10/08/94,10:40:00,0,0,0,0,0,0,0,80,55,0,43,41,44
10/08/94,10:45:00,0,0,0,0,0,0,0,80,55,0,44,45,32
10/08/94,10:50:00,0,0,0,0,0,0,0,80,47,0,43,28,43
10/08/94,10:55:00,0,0,0,0,0,0,0,80,47,0,44,38,34
10/08/94,11:00:00,0,0,0,0,0,0,0,80,47,0,36,43,34
10/08/94,11:05:00,0,0,0,0,0,0,0,80,47,0,35,43,39
10/08/94,11:10:00,0,0,0,0,0,0,0,80,47,0,44,31,30
10/08/94,11:15:00,0,0,0,0,0,0,0,80,47,0,30,35,42
10/08/94,11:20:00,0,0,0,0,0,0,0,80,47,0,39,44,30
10/08/94,11:25:00,0,0,0,0,0,0,0,79,39,0,43,30,43
10/08/94,11:30:00,0,0,0,0,0,0,0,79,39,0,30,36,31
10/08/94,11:35:00,0,0,0,0,0,0,0,79,39,0,42,44,40
10/08/94,11:40:00,0,0,0,0,0,0,0,80,39,0,42,27,36
10/08/94,11:45:00,0,0,0,0,0,0,0,79,39,0,42,39,33
10/08/94,11:50:00,0,0,0,0,0,0,0,79,39,0,32,43,38
10/08/94,11:55:00,0,0,0,0,0,0,0,79,39,0,36,40,29
10/08/94,12:00:00,0,0,0,0,0,0,0,79,40,0,42,44,43
10/08/94,12:05:00,0,0,0,0,0,0,0,80,40,0,30,29,30
10/08/94,12:10:00,0,0,0,0,0,0,0,80,35,0,41,39,42
10/08/94,12:15:00,0,0,0,0,0,0,0,79,35,0,32,41,33
10/08/94,12:20:00,0,0,0,0,0,0,0,78,43,0,35,30,34
10/08/94,12:25:00,0,0,0,0,0,0,0,78,35,0,44,41,32
10/08/94,12:30:00,0,0,0,0,0,0,0,76,44,0,28,42,32
10/08/94,12:35:00,0,0,0,0,0,0,0,79,35,0,39,42,33
10/08/94,12:40:00,0,0,0,0,0,0,0,79,35,0,36,31,31
10/08/94,12:45:00,0,0,0,0,0,0,0,79,35,0,32,33,37
10/08/94,12:50:00,0,0,0,0,0,0,0,79,35,0,42,43,29
10/08/94,12:55:00,0,0,0,0,0,0,0,79,35,0,29,28,41
10/08/94,13:00:00,0,0,0,0,0,0,0,76,35,0,36,36,29
10/08/94,13:05:00,0,0,0,0,0,0,0,76,35,0,42,43,42
10/08/94,13:10:00,0,0,0,0,0,0,0,76,35,0,28,27,30
10/08/94,13:15:00,0,0,0,0,0,0,0,76,54,0,40,37,39
10/08/94,13:20:00,0,0,0,0,0,0,0,76,46,0,42,42,35
10/08/94,13:25:00,0,0,0,0,0,0,0,76,35,0,42,38,29
10/08/94,13:30:00,0,0,0,0,0,0,0,76,35,0,29,32,39
10/08/94,13:35:00,0,0,0,0,0,0,0,76,35,0,39,43,28
10/08/94,13:40:00,0,0,0,0,0,0,0,76,35,0,37,30,42
10/08/94,13:45:00,0,0,0,0,0,0,0,76,35,0,31,33,31
10/08/94,13:50:00,0,0,1,0,0,0,0,76,35,0,42,42,35
10/08/94,13:55:00,0,0,0,0,0,0,0,76,35,0,27,27,36
10/08/94,14:00:00,0,0,0,0,0,0,0,76,35,0,37,36,28
10/08/94,14:05:00,1,3,10,0,0,0,0,76,35,0,36,37,39
10/08/94,14:10:00,5,3,5,2,0,0,0,76,35,0,30,29,28
10/08/94,14:15:00,0,0,0,0,0,0,0,76,35,0,41,41,37
10/08/94,14:20:00,9,6,2,2,0,0,0,76,35,0,27,28,33
10/08/94,14:25:00,0,0,0,0,0,0,0,76,35,0,37,35,29
10/08/94,14:30:00,0,0,0,0,0,0,0,76,35,0,37,43,39
10/08/94,14:35:00,0,0,0,0,0,0,0,76,35,0,30,26,28
10/08/94,14:40:00,0,0,0,0,0,0,0,76,35,0,40,38,43
10/08/94,14:45:00,0,0,0,0,0,0,0,76,35,0,32,43,30
10/08/94,14:50:00,0,1,6,0,0,0,0,76,35,0,34,27,39
10/08/94,14:55:00,0,0,1,0,0,0,0,76,35,0,43,40,34
10/08/94,15:00:00,0,1,9,0,0,0,0,76,35,0,27,36,30
10/08/94,15:05:00,0,0,0,0,0,0,0,76,35,0,38,31,39
10/08/94,15:10:00,0,0,0,0,0,0,0,76,35,0,38,42,27
10/08/94,15:15:00,0,0,0,0,0,0,0,76,35,0,31,40,43
10/08/94,15:20:00,0,0,7,0,0,0,0,76,35,0,42,43,29
10/08/94,15:25:00,0,2,3,9,0,0,0,76,35,0,27,27,38
10/08/94,15:30:00,14,2,15,9,0,0,0,76,35,0,37,39,32
10/08/94,15:35:00,15,28,40,32,0,0,0,75,54,0,28,25,23
10/08/94,15:40:00,4,6,12,2,0,0,0,75,35,0,29,32,35
10/08/94,15:45:00,10,11,33,12,0,0,0,74,35,0,29,27,23
10/08/94,15:50:00,21,13,12,14,0,0,0,74,35,0,23,25,22
10/08/94,15:55:00,8,5,0,0,0,0,0,74,35,0,32,34,30
10/08/94,16:00:00,14,20,26,28,0,0,0,75,35,0,22,22,23
10/08/94,16:05:00,17,17,22,6,0,0,0,74,35,0,31,32,22
10/08/94,16:10:00,9,19,15,15,0,0,0,74,35,0,21,21,26
10/08/94,16:15:00,10,3,12,2,0,0,0,74,35,0,29,31,20
10/08/94,16:20:00,0,0,0,0,0,0,0,74,35,0,27,27,33
10/08/94,16:25:00,0,0,0,0,0,0,0,75,35,0,27,28,26
10/08/94,16:30:00,0,0,0,0,0,0,0,75,35,0,37,38,30
10/08/94,16:35:00,0,0,0,0,0,0,0,76,35,0,25,25,34
10/08/94,16:40:00,0,0,0,0,0,0,0,76,35,0,37,36,25
10/08/94,16:45:00,0,0,0,0,0,0,0,75,35,0,30,37,39
10/08/94,16:50:00,0,1,0,0,0,0,0,76,35,0,31,27,28
10/08/94,16:55:00,0,0,0,0,0,0,0,76,35,0,41,39,33
10/08/94,17:00:00,0,0,0,0,0,1,2,76,35,0,27,33,34
10/08/94,17:05:00,35,16,9,34,1,1,3,75,35,0,38,31,27
10/08/94,17:10:00,0,0,7,0,1,1,3,76,35,0,31,40,37
10/08/94,17:15:00,45,25,20,3,1,1,3,76,35,0,30,25,32
10/08/94,17:20:00,58,50,59,36,1,1,3,74,34,0,33,34,24
10/08/94,17:25:00,29,28,16,22,1,1,3,73,34,0,20,21,14
10/08/94,17:30:00,66,53,63,49,1,1,3,73,34,0,21,21,22
10/08/94,17:35:00,20,12,22,10,1,1,3,73,34,0,19,19,15
10/08/94,17:40:00,46,49,71,41,1,1,3,72,34,0,15,14,12
10/08/94,17:45:00,67,48,57,50,1,1,3,72,34,0,13,11,10
10/08/94,17:50:00,48,48,58,49,1,1,3,71,34,0,11,10,9
10/08/94,17:55:00,60,39,44,45,1,1,3,71,34,0,10,9,8
10/08/94,18:00:00,41,26,46,48,1,1,3,72,34,0,10,8,8
10/08/94,18:05:00,53,42,53,48,1,1,3,72,34,0,9,7,7
10/08/94,18:10:00,41,36,46,44,2,1,4,72,34,0,8,7,7
10/08/94,18:15:00,66,48,51,47,2,1,4,71,34,0,8,6,7
10/08/94,18:20:00,56,42,47,46,2,2,4,71,34,0,8,6,7
10/08/94,18:25:00,62,42,55,40,2,2,5,71,34,0,7,6,7
10/08/94,18:30:00,57,37,51,39,3,2,6,71,34,0,7,6,7
10/08/94,18:35:00,60,38,51,41,3,2,6,71,34,0,8,6,7
10/08/94,18:40:00,56,37,50,38,3,2,5,71,34,0,8,6,7
10/08/94,18:45:00,55,35,42,37,3,2,6,71,34,0,8,6,7
10/08/94,18:50:00,25,24,30,36,5,3,9,72,34,0,8,6,7
10/08/94,18:55:00,7,4,10,9,6,4,11,73,34,0,8,6,6
10/08/94,19:00:00,5,2,8,9,7,4,11,73,34,0,11,13,10
10/08/94,19:05:00,0,0,15,13,8,5,13,73,35,0,23,27,21
10/08/94,19:10:00,0,0,0,0,7,5,12,74,35,0,21,19,14
10/08/94,19:15:00,0,0,7,0,8,5,13,74,35,0,20,22,26
10/08/94,19:20:00,2,0,13,13,11,6,17,74,36,0,29,32,18
10/08/94,19:25:00,10,15,20,22,12,7,19,74,35,0,21,19,25
10/08/94,19:30:00,12,14,22,23,13,8,21,73,35,0,16,15,16
10/08/94,19:35:00,0,0,15,11,14,9,23,73,35,0,18,25,12
10/08/94,19:40:00,0,0,0,0,14,8,23,73,35,0,25,23,22
10/08/94,19:45:00,0,0,0,0,14,8,22,74,35,0,18,19,17
10/08/94,19:50:00,0,0,0,0,17,11,29,74,35,0,25,30,28
10/08/94,19:55:00,0,0,0,0,17,11,29,74,35,0,27,24,18
10/08/94,20:00:00,0,0,0,0,17,11,28,74,35,0,22,25,27
10/08/94,20:05:00,0,0,0,0,20,12,31,74,35,0,32,34,26
10/08/94,20:10:00,0,0,0,0,19,12,34,74,35,0,24,21,20
10/08/94,20:15:00,0,0,0,0,18,12,28,75,35,0,27,31,30
10/08/94,20:20:00,0,0,0,0,20,13,33,74,35,0,28,26,22
10/08/94,20:25:00,0,0,0,0,21,14,35,74,35,0,24,26,26
10/08/94,20:30:00,0,0,3,1,27,18,44,74,35,0,32,34,29
10/08/94,20:35:00,0,0,4,0,25,18,42,74,35,0,22,21,19
10/08/94,20:40:00,0,0,0,0,23,16,38,74,35,0,28,31,30
10/08/94,20:45:00,3,0,0,3,23,16,38,74,35,0,27,24,20
10/08/94,20:50:00,0,0,0,0,23,17,40,74,43,0,23,27,25
10/08/94,20:55:00,0,0,0,0,24,18,41,74,35,0,32,32,26
10/08/94,21:00:00,0,0,0,0,26,18,43,73,35,0,22,20,19
10/08/94,21:05:00,0,0,1,4,26,19,44,74,51,0,26,31,31
10/08/94,21:10:00,1,6,15,11,28,19,46,77,51,0,28,26,18
10/08/94,21:15:00,0,0,0,7,29,20,48,77,51,0,21,23,30
10/08/94,21:20:00,0,0,0,0,30,21,49,77,51,0,30,33,20
10/08/94,21:25:00,0,0,0,0,33,22,53,74,51,0,23,21,25
10/08/94,21:30:00,0,0,0,0,34,22,54,78,51,0,25,28,26
10/08/94,21:35:00,0,0,0,0,34,23,55,78,51,0,30,28,20
10/08/94,21:40:00,0,0,0,1,36,23,57,77,51,0,22,24,30
10/08/94,21:45:00,19,14,15,11,36,23,57,77,51,0,31,33,17
10/08/94,21:50:00,5,3,2,5,37,23,58,77,51,0,22,20,28
10/08/94,21:55:00,0,0,2,0,38,23,59,77,55,0,22,28,18
10/08/94,22:00:00,0,0,0,0,39,24,61,77,51,0,29,26,25
10/08/94,22:05:00,0,0,9,1,40,24,63,80,51,0,20,21,21
10/08/94,22:10:00,0,0,0,0,42,24,64,80,51,0,27,32,23
10/08/94,22:15:00,0,0,0,0,44,25,66,80,51,0,25,21,22
10/08/94,22:20:00,0,0,3,0,45,25,68,80,51,0,22,26,22
10/08/94,22:25:00,0,0,4,2,46,26,69,79,51,0,30,28,23
10/08/94,22:30:00,2,0,1,0,47,26,71,79,43,0,21,18,20
10/08/94,22:35:00,0,0,2,2,48,26,72,77,43,0,20,26,22
10/08/94,22:40:00,0,0,0,0,48,27,72,77,43,0,26,23,19
10/08/94,22:45:00,0,0,0,0,49,27,73,77,51,0,19,18,16
10/08/94,22:50:00,0,0,0,0,49,27,74,78,51,0,21,28,24
10/08/94,22:55:00,0,0,4,1,50,28,75,78,51,0,26,22,15
10/08/94,23:00:00,9,11,12,6,50,28,76,78,51,0,19,19,24
10/08/94,23:05:00,5,16,9,4,51,28,76,77,51,0,15,27,17
10/08/94,23:10:00,13,9,9,6,51,28,77,77,50,0,13,19,12
10/08/94,23:15:00,6,8,18,9,52,29,78,77,50,0,11,14,10
10/08/94,23:20:00,8,14,18,16,52,29,78,77,50,0,11,11,9
10/08/94,23:25:00,13,13,16,5,53,29,79,77,50,0,10,9,8
10/08/94,23:30:00,15,11,19,6,53,29,79,77,50,0,9,11,8
10/08/94,23:35:00,13,9,13,1,53,29,80,77,50,0,9,22,8
10/08/94,23:40:00,13,9,11,0,54,30,81,76,50,0,9,17,8
10/08/94,23:45:00,0,0,2,0,54,30,81,77,51,0,13,13,11
10/08/94,23:50:00,0,0,0,0,54,30,81,77,51,0,24,19,20
10/08/94,23:55:00,0,0,2,0,55,30,82,75,51,0,19,23,14
10/09/94,00:00:00,0,0,0,0,55,30,82,75,51,0,15,16,10
